Reflectivity
-20 -5 24 7 9 14 -5 7 -14 -14 4 -13 15 18 6 5 -6 -20 -20 6 -20 -18 -1 4 -19 6 3 -10 -20 8 3 8 -3 -10 -20 -10 -18 -20 -8 -15 -20 -12 8
-20 -0 27 20 20 18 -6 5 8 -10 10 -20 -20 -20 -8 -20 -20 -20 -20 10 -16 16 -11 -20 -0 3 -6 9 -20 -16 -12 15 -8 19 -3 -14 -20 12 -20 -20 -20 -20 -17
-20 -14 27 31 33 18 -12 -20 -20 -2 -19 -20 -20 -17 -3 -20 -8 -19 -20 -20 -15 -17 8 -18 -16 -20 -20 -20 -12 -18 -20 -1 -14 -13 1 5 -2 -16 -16 -8 -20 -20 -20
-20 8 11 4 2 -7 -14 -18 -20 -18 -12 -6 -20 -20 -20 -20 -11 -20 -20 -20 -9 -20 -19 -20 -15 -20 -19 -19 17 -5 -5 -17 -14 -20 -9 -20 -2 5 -8 -19 -20 -3 6
-20 -20 -20 -20 -20 -20 -20 -20 -20 -20 -20 -8 -15 -19 4 4 -14 -20 -19 -20 8 -14 -5 -17 16 2 -2 21 -17 -1 -0 -20 -20 -20 -20 -20 -14 6 4 -4 -15 -6 -15
-20 -20 -20 -20 -20 -20 -20 -20 -20 -20 -17 -20 -20 -20 4 -1 5 13 7 -0 -16 -20 -0 -20 -19 -7 -10 -9 -11 -18 -20 -20 -20 -20 -20 -20 -20 10 -9 -18 6 4 -1
-20 -20 -20 -16 -20 -20 -20 -17 -20 1 -1 -5 -20 -0 -20 -2 -20 -19 -2 -9 -2 -20 -20 -20 -20 -19 -20 -20 -20 -20 -20 -20 -20 -20 -20 -9 -19 5 3 4 2 -14 -7
-20 -20 -20 -20 -20 -20 -20 -5 -20 -15 -20 -19 -17 -20 -20 -11 -16 9 -3 -5 -19 -20 -20 -20 -20 -20 -20 -20 -20 -20 -20 -20 -20 -20 -20 -20 -20 -20 -20 -20 -20 -18 4
-20 -20 -20 -2 -20 -20 -7 2 0 -20 -20 -20 4 -20 -20 -20 12 -20 -20 -20 -19 -20 -20 -20 -20 -20 -19 -20 -20 -20 -20 -20 -20 -20 -20 -20 -20 -20 -20 -20 -20 -20 -20
-20 -2 -20 -20 -20 -20 9 -10 3 -20 -19 -5 -19 8 14 1 6 -6 -11 -20 -20 -20 -20 -20 -20 -20 -20 -20 -20 -20 -20 -20 -20 -20 -20 -20 -20 -20 -20 -20 -20 -20 -20
-20 -20 -20 -20 -20 1 -20 -13 -20 -6 -1 -20 -20 9 -20 -20 -20 -20 -20 -20 -20 -20 -20 -20 -20 -20 -20 -20 -20 -20 -20 -20 -20 -20 -20 -20 -20 -20 -20 -20 -20 -20 -20
-20 -20 -20 -20 -20 -20 4 -20 -20 -5 -16 -20 -18 -20 -20 -20 -20 -20 -20 -20 -20 -20 -20 -20 -20 -20 -20 -20 -20 -20 -20 -20 -20 -20 -20 -20 -20 -20 -20 -20 -20 -20 -20
-20 -20 -20 -20 -20 -20 -20 -20 -20 -20 -20 -20 -20 -20 -20 -20 -20 -20 -20 -20 -20 -20 -20 -20 -20 -20 -20 -20 -20 -20 -20 -20 -20 -20 -20 -20 -20 -20 -20 -20 -20 -20 -20
-20 -20 -20 -20 -20 20 -20 -20 -20 -20 -20 -20 -20 -20 -20 -20 -20 -20 -20 -20 -20 -20 -20 -20 -20 -20 -20 -20 -20 -20 -20 -20 -20 -20 -20 -20 -20 -20 -20 -20 -20 -20 -20
-20 -20 -20 -20 -20 -20 -20 -20 -20 -20 -20 -20 -20 -20 -20 -20 -20 -20 -20 -20 -20 -20 -20 -20 -20 -20 -20 -20 -20 -20 -20 -20 -20 -20 -20 -20 -20 -20 -20 -20 -20 -20 -20
-20 -20 -20 -20 -20 -20 -20 -20 -20 -20 -20 -20 -20 -20 -20 -20 -20 -20 -20 -20 -20 -20 -20 -20 -20 -20 -20 -20 -20 -20 -20 -20 -20 -20 -20 -20 -20 -20 -20 -20 -20 -20 -20
-20 -20 -20 -20 -20 -20 -20 -20 -20 -20 -20 -20 -20 -20 -20 -20 -20 -20 -20 -20 -20 -20 -20 -20 -20 -20 -20 -20 -20 -20 -20 -20 -20 -20 -20 -20 -20 -20 -20 -20 -20 -20 -20
-20 -20 -20 -20 -20 -20 -20 -20 -20 -20 -20 -20 -20 -20 -20 -20 -20 -20 -20 -20 -20 -20 -20 -20 -20 -20 -20 -20 -20 -20 -20 -20 -20 -20 -20 -20 -20 -20 -20 -20 -20 -20 -20
-20 -20 -20 -20 -20 -20 -20 -20 -20 -20 -20 -20 -20 -20 -20 -20 -20 -20 -20 -20 -20 -20 -20 -20 -20 -20 -20 -20 -20 -20 -20 -20 -20 -20 -20 -20 -20 -20 -20 -20 -20 -20 -20
-20 -20 -20 -20 -20 -20 -17 -20 -20 -20 -20 -20 4 -20 -20 -20 -20 -20 -20 -20 -20 -20 -20 -20 -20 -20 -20 -20 -20 -20 -20 -20 -20 -20 -20 -20 -20 -20 -20 -20 -20 -20 -20
-20 -20 -20 -20 5 -20 -20 -20 -20 -20 -20 -20 -20 -20 -20 -20 -20 -20 -20 -20 -20 -20 -20 -20 -20 -20 -20 -20 -20 -20 -20 -20 -20 -20 -20 -20 -20 -20 -20 -20 -20 -20 -20
-20 -20 -20 -20 -20 -20 -20 -20 -20 -20 -20 -20 -20 -20 -20 -20 -20 -20 -20 -20 -20 -20 -20 -20 -20 -20 -20 -20 -20 -20 -20 -20 -20 -20 -20 -20 -20 -20 -20 -20 -20 -20 -20
-20 -20 -20 -20 -20 -20 -20 -20 -20 -20 -20 -20 -20 -20 1 -20 -20 -20 -20 -20 -20 -20 -20 -20 -20 -20 -20 -20 -20 -20 -20 -20 -20 -20 -20 -20 -20 -20 -20 -20 -20 -20 -20
-20 -20 -20 -20 -20 -20 -20 -20 -20 -20 -20 -20 -20 -20 -20 -0 -20 -20 -20 -20 -20 -20 -20 -20 -20 -20 -20 -20 -20 -20 -20 -20 -20 -20 -20 -20 -20 -20 -20 -20 -20 -20 -20
-20 -20 -20 -20 -20 -20 -20 -20 -20 -20 -20 -20 -20 -20 -20 -20 -20 -20 -20 -20 -20 -20 -20 -20 -20 -20 -20 -20 -20 -20 -20 -20 -20 -20 -20 -20 -20 -20 -20 -20 -20 -20 -20
-20 -20 -20 -20 -20 -20 -20 -20 -20 -20 -20 -20 -20 -20 -20 -20 -20 -20 -20 -13 -20 -20 -20 -20 -20 -20 -20 -20 -20 -20 -20 -20 -20 -20 -20 -20 -20 -20 -20 -20 -20 -20 -20
Wind_Speed
3 3 1 1 4 4 10 10 12 13 13 13 15 14 14 12 13 12 12 12 12 12 13 15 14 14 13 13 12 11 13 13 12 12 12 13 14 14 14 14 12 11 13
8 5 8 3 2 3 9 11 11 12 13 15 14 13 13 12 12 12 12 13 12 13 13 14 14 14 14 15 13 12 11 11 12 13 13 14 15 14 15 13 12 12 13
8 5 10 13 11 8 11 11 10 12 12 12 13 11 11 11 11 12 13 12 12 12 13 13 13 12 11 13 13 14 13 13 14 15 12 8 9 14 14 14 13 12 12
8 5 5 7 7 10 11 11 9 13 12 12 12 10 10 10 11 12 12 11 12 12 12 13 10 11 9 10 13 14 14 15 15 13 8 7 10 14 14 13 13 12 11
7 6 5 7 8 8 9 10 9 11 11 11 11 10 10 10 11 12 11 11 12 11 11 12 11 12 14 14 14 14 14 14 14 10 8 7 6 11 13 12 12 11 11
6 5 5 7 8 8 8 9 9 9 10 10 10 9 11 10 9 11 11 12 12 10 10 12 12 12 14 15 15 14 12 13 11 8 7 7 5 12 12 11 10 10 9
6 4 5 8 10 11 10 10 10 10 9 10 9 10 9 8 8 8 9 10 11 10 10 11 13 12 13 13 12 11 12 12 7 7 7 7 7 11 12 11 10 9 9
6 5 4 8 9 10 10 10 10 11 10 9 8 8 8 6 8 9 10 10 11 10 10 11 11 14 12 9 11 11 10 9 7 7 6 4 6 8 9 10 9 9 9
4 5 3 5 7 10 10 10 11 11 9 9 8 7 7 7 8 10 10 10 11 10 9 9 11 12 11 7 9 9 9 9 5 3 4 3 6 7 8 8 8 7 6
4 5 4 3 4 4 4 9 10 9 9 9 8 8 8 9 10 12 9 10 10 10 9 9 9 9 9 10 8 8 8 9 4 3 2 2 4 6 6 6 5 4 4
4 4 3 3 4 4 3 5 9 10 8 9 6 9 7 4 5 6 8 10 11 10 10 9 7 6 7 6 4 4 7 3 3 2 0 1 2 4 4 4 3 2 2
4 4 4 4 4 4 3 4 4 3 4 4 4 5 4 3 2 4 8 10 12 10 10 10 9 8 6 2 1 1 2 4 3 3 1 3 3 3 3 2 1 0 1
4 3 5 5 4 3 4 3 2 2 2 3 4 4 2 3 3 3 3 3 3 6 3 4 4 3 4 3 2 1 3 4 2 2 2 5 5 3 2 1 2 2 3
5 4 5 5 4 2 3 3 3 3 2 2 2 2 2 2 3 3 2 3 2 2 3 2 1 2 3 3 3 3 3 4 3 2 3 6 6 4 3 3 3 4 5
6 4 5 5 5 3 4 3 2 2 2 3 2 1 2 2 3 2 2 2 1 1 1 1 2 3 3 3 3 3 4 4 4 2 2 6 6 6 5 4 4 6 6
7 6 5 6 5 5 4 4 3 3 3 2 2 2 3 3 3 2 1 1 1 1 1 1 0 1 2 3 4 2 3 3 3 3 2 3 7 6 6 6 7 7 7
5 7 7 6 6 6 6 5 4 3 3 2 3 2 4 3 3 3 2 2 1 1 2 1 0 1 1 2 3 2 3 2 1 2 2 3 3 7 8 8 8 9 8
6 8 7 8 7 6 5 4 3 4 3 3 2 1 5 4 4 3 2 2 2 2 0 1 2 2 2 2 0 0 2 1 2 2 2 3 2 3 4 7 8 7 8
8 7 7 7 8 7 6 4 3 3 3 2 2 2 4 4 4 3 1 1 2 2 3 2 2 1 1 1 2 1 1 1 2 2 3 3 3 3 2 5 5 7 7
6 6 6 5 7 6 3 3 3 3 2 2 3 2 1 2 3 2 2 2 3 2 3 2 2 2 2 1 1 2 0 0 1 2 3 4 3 4 4 4 4 5 8
6 6 6 7 6 7 3 3 2 3 2 1 0 3 4 3 3 3 1 2 1 3 3 3 2 3 3 2 2 3 2 2 2 3 3 2 3 4 4 4 4 4 4
8 7 6 7 7 6 4 3 3 3 2 2 2 2 4 3 3 2 2 3 1 2 1 3 3 1 2 4 2 2 3 3 3 4 4 3 3 3 4 5 6 6 4
11 10 8 8 8 6 5 4 3 4 3 2 1 1 2 3 3 4 4 3 2 1 1 2 3 3 2 3 5 3 1 1 2 3 4 4 3 2 3 4 6 5 6
12 8 7 7 7 5 6 5 6 4 4 3 3 3 3 2 4 4 3 4 2 2 2 1 1 2 2 1 1 4 3 1 2 2 1 2 3 3 4 4 4 5 4
10 10 9 7 6 5 6 6 5 4 2 1 2 3 3 2 2 3 4 4 4 2 1 0 2 3 2 2 1 1 1 2 1 2 2 4 2 3 3 4 3 3 4
7 8 8 9 6 6 6 6 7 8 6 4 3 3 2 1 2 2 4 4 2 2 1 1 1 3 3 3 2 2 1 2 1 2 2 2 3 4 3 4 4 3 4
Wind_Direction
188 136 163 62 45 87 99 97 90 91 97 100 99 105 98 102 96 99 101 101 92 87 83 88 89 90 83 83 84 103 107 111 108 102 98 96 100 100 97 88 88 94 91
131 153 148 109 51 103 102 97 97 104 107 106 102 102 101 97 102 103 96 97 89 92 91 90 87 86 84 86 82 85 98 104 98 94 91 97 97 95 93 97 87 86 85
123 169 156 161 165 130 102 96 104 102 103 106 112 105 109 106 103 99 95 89 97 89 94 89 89 87 90 81 84 90 87 89 89 87 80 68 84 99 103 99 98 95 93
132 137 122 116 107 98 103 108 105 107 112 114 114 107 102 108 108 94 93 86 91 94 96 92 85 87 101 94 92 81 78 80 80 73 60 63 86 89 91 92 90 92 87
115 131 150 125 115 104 103 106 114 115 108 112 105 108 107 105 100 103 98 102 89 92 84 77 71 74 96 95 93 87 86 85 81 72 70 66 60 85 84 84 84 87 91
119 129 152 148 133 127 127 126 123 122 117 114 114 115 104 103 91 95 90 87 88 89 85 70 62 55 90 90 90 84 86 85 79 69 64 73 82 84 83 83 91 83 87
123 154 161 163 158 145 135 135 129 120 111 116 122 116 105 102 93 87 98 89 91 86 80 72 60 57 105 94 90 93 90 85 75 74 68 67 79 87 86 84 87 84 87
136 147 170 151 145 139 140 139 134 127 126 123 113 105 107 101 92 80 89 89 86 88 82 74 66 66 100 100 95 95 100 92 77 73 69 66 86 92 95 81 75 73 71
115 128 143 136 149 143 144 138 137 136 135 122 111 109 116 116 103 82 78 81 87 87 82 76 67 69 73 94 99 92 101 106 85 81 86 70 81 88 82 78 74 70 72
107 113 121 104 111 99 130 140 137 137 135 119 119 115 116 94 89 81 67 83 85 88 86 77 68 71 70 69 115 107 116 107 111 97 93 87 83 91 90 86 88 88 72
130 132 127 117 110 120 133 155 146 145 139 129 120 100 65 56 58 74 95 86 79 77 80 82 73 68 71 65 85 125 129 134 119 117 107 144 122 115 106 109 99 70 37
159 162 149 141 143 165 124 91 86 106 83 82 75 78 76 71 104 84 76 68 57 50 48 50 42 39 41 29 12 53 162 152 138 161 189 209 193 157 150 135 154 322 325
172 176 157 153 161 160 110 96 72 73 84 82 98 107 75 63 57 52 49 44 41 42 39 36 32 18 333 311 293 222 178 168 166 168 194 222 221 205 199 194 253 282 303
169 189 165 168 160 148 104 101 114 112 117 132 149 113 98 78 59 40 31 32 49 43 42 24 11 336 321 310 287 222 152 164 169 177 221 231 238 248 248 242 270 292 296
169 194 181 171 169 160 136 116 111 129 161 162 193 244 150 100 87 39 28 56 70 15 328 340 4 352 344 6 10 166 153 166 168 187 222 248 241 256 270 275 286 287 298
170 187 175 186 174 165 155 153 161 172 178 190 205 202 141 136 145 197 262 304 349 328 309 309 305 274 360 5 15 88 184 171 179 201 212 242 255 252 262 270 276 279 285
185 164 177 187 173 180 173 176 166 176 180 210 238 209 162 158 181 211 241 289 258 340 333 342 275 279 33 24 21 78 117 137 177 237 235 242 252 259 259 267 276 291 300
167 176 171 187 183 183 171 181 175 176 181 202 214 179 166 186 178 192 213 231 221 256 225 43 39 33 60 102 70 156 154 173 223 232 238 247 260 277 285 287 287 285 291
178 174 182 190 176 187 185 180 183 159 172 199 150 187 168 173 178 225 195 339 333 20 36 17 15 60 102 138 215 152 68 283 262 269 267 267 261 275 315 304 300 279 266
161 169 171 183 163 160 130 123 118 132 144 211 169 142 202 202 196 194 139 54 21 28 25 42 55 49 57 218 328 48 145 213 318 304 316 313 293 278 268 261 264 261 258
152 156 173 155 155 143 140 146 118 163 143 172 239 163 172 225 210 162 133 105 25 53 5 2 73 51 24 15 54 36 49 21 304 312 304 327 316 302 273 259 257 248 260
172 173 183 167 169 162 154 151 142 145 137 124 172 184 163 204 186 145 177 154 172 76 27 43 62 91 31 21 105 80 21 345 337 15 17 341 333 326 300 290 278 261 261
186 182 192 174 181 172 147 116 86 77 67 107 159 194 123 165 189 157 164 162 181 167 105 47 76 101 120 44 51 120 117 204 313 348 9 17 357 315 301 296 291 342 8
197 175 183 178 180 178 162 146 153 160 154 197 171 172 167 171 170 179 158 146 190 189 138 49 31 86 106 94 60 61 53 142 163 315 328 329 345 336 320 314 330 3 350
178 177 182 176 173 177 183 167 150 157 154 141 145 176 182 232 205 191 170 171 183 161 150 191 119 89 77 110 108 146 99 42 57 139 286 333 310 269 293 292 334 325 314
172 169 176 177 188 181 185 177 167 173 170 163 183 197 207 236 278 299 187 181 185 161 193 222 56 90 101 103 115 109 124 174 169 101 108 254 279 310 294 295 289 286 307